Stations météo

réclame
Mon MeteoGroup
Jersey Airport, Grande-Bretagne (3895): Température de l'air & dewpoint: 23.11.2020 07:00:00 - 29.11.2020 07:00:00 (GMT)Jersey Airport, Grande-Bretagne (3895): Température de l'air -20cm & Température de l'air -100cm: 23.11.2020 07:00:00 - 29.11.2020 07:00:00 (GMT)Jersey Airport, Grande-Bretagne (3895): Vitesse du vent & gusts: 23.11.2020 07:00:00 - 29.11.2020 07:00:00 (GMT)Jersey Airport, Grande-Bretagne (3895): Direction du vent: 23.11.2020 07:00:00 - 29.11.2020 07:00:00 (GMT)Jersey Airport, Grande-Bretagne (3895): reduced air pressure: 23.11.2020 07:00:00 - 29.11.2020 07:00:00 (GMT)Jersey Airport, Grande-Bretagne (3895): visibility: 23.11.2020 07:00:00 - 29.11.2020 07:00:00 (GMT)Jersey Airport, Grande-Bretagne (3895): Ensoleillement: 23.11.2020 07:00:00 - 29.11.2020 07:00:00 (GMT)Jersey Airport, Grande-Bretagne (3895): Quantités de précipitations: 23.11.2020 07:00:00 - 29.11.2020 07:00:00 (GMT)
Date & Time tt [°C] td [°C] tt -20cm [°C] tt -100cm [°C] ff [km/h] ff [knt] fx [km/h] fx [knt] dd ppp [hPa] vv [km] sd [min] rr [mm]
29.11.2020 07:00:00 8,0 5,0 - - 24 13 - - ESE - 10 - -
29.11.2020 06:00:00 6,5 4,4 - - 22 12 - - E 1021,2 10 0 0,0
29.11.2020 05:00:00 7,6 4,9 - - 22 12 - - E 1020,7 10 0 0,0
29.11.2020 04:00:00 8,0 5,2 - - 22 12 - - E 1020,2 10 0 0,0
29.11.2020 03:00:00 8,1 5,8 - - 21 11 - - E 1020,0 10 0 0,0
29.11.2020 02:00:00 8,3 6,5 - - 22 12 - - E 1019,7 10 0 0,0
29.11.2020 01:00:00 8,7 6,2 - - 22 12 - - E 1019,4 10 0 0,0
29.11.2020 00:00:00 9,6 7,9 - - 24 13 - - E 1019,0 10 - 0,0
28.11.2020 23:00:00 10,2 9,0 - - 24 13 - - ENE 1018,7 11 0 0,0
28.11.2020 22:00:00 10,1 8,8 - - 26 14 - - E 1018,3 10 0 0,0
28.11.2020 21:00:00 10,0 7,8 - - 24 13 - - E 1018,1 10 0 0,0
28.11.2020 20:00:00 10,4 8,2 - - 24 13 - - E 1017,4 15 0 0,0
28.11.2020 19:00:00 10,5 8,1 - - 24 13 - - E 1016,9 10 0 0,0
28.11.2020 18:00:00 10,9 8,7 - - 24 13 - - E 1016,2 10 0 0,0
28.11.2020 17:00:00 11,3 9,1 - - 22 12 - - E 1015,5 19 0 0,0
28.11.2020 16:00:00 13,0 9,3 - - 16 9 - - ENE 1014,8 35 48 0,0
28.11.2020 15:00:00 13,9 9,6 - - 16 9 - - E 1014,6 10 60 0,0
28.11.2020 14:00:00 15,3 9,9 - - 16 9 - - E 1014,4 10 60 0,0
28.11.2020 13:00:00 15,0 9,8 - - 16 9 - - ESE 1014,4 10 60 0,0
28.11.2020 12:00:00 14,2 10,5 - - 16 9 - - ESE 1014,2 10 60 0,0
28.11.2020 11:00:00 12,8 9,6 - - 16 9 - - ESE 1014,5 10 60 0,0
28.11.2020 10:00:00 11,7 9,8 - - 13 7 - - E 1014,2 15 60 0,0
28.11.2020 09:00:00 10,4 9,2 11,9 12,2 16 9 - - E 1013,6 23 30 0,0
28.11.2020 08:00:00 9,7 8,9 - - 18 10 - - SE 1013,1 10 0 0,0
28.11.2020 07:00:00 9,9 8,9 - - 18 10 - - SE 1012,6 10 0 0,0
28.11.2020 06:00:00 10,3 9,3 - - 21 11 - - ESE 1012,2 19 0 0,0
28.11.2020 05:00:00 9,7 8,6 - - 16 9 - - SE 1012,0 10 0 0,0
28.11.2020 04:00:00 11,0 9,6 - - 22 12 - - SE 1011,8 10 0 0,0
28.11.2020 03:00:00 11,2 9,6 - - 26 14 - - SE 1011,8 10 0 0,0
28.11.2020 02:00:00 10,3 9,5 - - 22 12 - - SE 1011,8 12 0 0,0
28.11.2020 01:00:00 9,7 9,0 - - 16 9 - - SE 1011,9 9 0 0,2
28.11.2020 00:00:00 10,0 9,4 - - 18 10 - - SE 1012,3 8 - 0,0
27.11.2020 23:00:00 9,9 9,3 - - 18 10 - - SE 1012,4 6 0 0,0
27.11.2020 22:00:00 9,6 9,1 - - 18 10 - - SE 1012,6 6 0 0,0
27.11.2020 21:00:00 9,3 8,8 - - 21 11 - - ESE 1012,7 5 0 0,0
27.11.2020 20:00:00 9,3 8,7 - - 18 10 - - ESE 1012,8 4,7 0 0,0
27.11.2020 19:00:00 9,0 8,4 - - 16 9 - - ESE 1013,1 5 0 0,0
27.11.2020 18:00:00 8,8 8,2 - - 21 11 - - E 1013,2 5 0 0,0
27.11.2020 17:00:00 8,4 7,6 - - 16 9 - - ESE 1013,3 6 0 0,0
27.11.2020 16:00:00 9,4 7,9 - - 18 10 - - ESE 1013,7 9 0 0,0
27.11.2020 15:00:00 10,3 8,3 - - 18 10 - - E 1013,3 10 12 0,0
27.11.2020 14:00:00 10,6 8,5 - - 18 10 - - E 1013,8 10 24 0,0
27.11.2020 13:00:00 10,8 9,0 - - 18 10 - - E 1014,7 10 6 0,0
27.11.2020 12:00:00 10,8 9,0 - - 15 8 - - E 1015,3 10 0 0,0
27.11.2020 11:00:00 10,2 8,6 - - 21 11 - - E 1016,1 9 0 0,0
27.11.2020 10:00:00 10,5 8,4 - - 28 15 - - E 1016,3 10 0 0,0
27.11.2020 09:00:00 10,0 8,5 12,0 12,2 24 13 - - E 1016,3 9 0 0,0
27.11.2020 08:00:00 10,3 9,1 - - 22 12 - - E 1016,5 9 0 0,0
27.11.2020 07:00:00 10,2 8,6 - - 21 11 - - E 1016,3 10 0 0,0
27.11.2020 06:00:00 10,1 8,7 - - 21 11 - - E 1016,4 9 0 0,0
27.11.2020 05:00:00 10,0 8,3 - - 16 9 - - E 1016,9 10 0 0,0
27.11.2020 04:00:00 10,1 8,7 - - 18 10 - - E 1017,3 9 0 0,0
27.11.2020 03:00:00 10,2 8,9 - - 15 8 - - E 1017,6 8 0 0,0
27.11.2020 02:00:00 9,9 8,9 - - 13 7 - - ENE 1018,1 6 0 0,0
27.11.2020 01:00:00 9,9 9,0 - - 13 7 - - ENE 1018,2 6 0 0,0
27.11.2020 00:00:00 9,6 8,9 - - 13 7 - - E 1018,6 5 - 0,0
26.11.2020 23:00:00 9,9 9,2 - - 15 8 - - E 1018,7 4,4 0 0,0
26.11.2020 22:00:00 10,3 9,4 - - 18 10 - - E 1018,8 7 0 0,0
26.11.2020 21:00:00 10,2 9,1 - - 11 6 - - ENE 1018,8 7 0 0,0
26.11.2020 20:00:00 10,4 8,9 - - 11 6 - - NE 1019,1 10 0 0,0
26.11.2020 19:00:00 11,1 9,4 - - 15 8 - - NE 1019,1 10 0 0,0
26.11.2020 18:00:00 11,3 9,4 - - 13 7 - - NE 1019,0 13 0 0,0
26.11.2020 17:00:00 11,4 9,6 - - 9 5 - - ENE 1018,7 10 0 0,0
26.11.2020 16:00:00 11,2 9,5 - - 9 5 - - NE 1018,4 10 30 0,0
26.11.2020 15:00:00 11,8 9,4 - - 13 7 - - NE 1018,1 13 54 0,0
26.11.2020 14:00:00 11,7 9,7 - - 13 7 - - ENE 1018,5 10 36 0,0
26.11.2020 13:00:00 12,4 9,7 - - 13 7 - - E 1018,9 15 60 0,0
26.11.2020 12:00:00 11,4 10,0 - - 9 5 - - E 1018,8 10 60 0,0
26.11.2020 11:00:00 10,7 10,5 - - 11 6 - - ENE 1019,5 7 60 0,0
26.11.2020 10:00:00 10,2 10,1 - - 13 7 - - ENE 1019,6 3,4 6 0,0
26.11.2020 09:00:00 9,5 9,3 12,0 12,2 13 7 - - E 1019,6 0,6 0 0,0
26.11.2020 08:00:00 9,4 9,2 - - 13 7 - - E 1019,4 5 0 0,0
26.11.2020 07:00:00 9,1 8,7 - - 13 7 - - ENE 1019,1 3,0 0 0,0
26.11.2020 06:00:00 9,3 8,9 - - 15 8 - - ENE 1018,4 5 0 0,0
26.11.2020 05:00:00 9,5 9,1 - - 11 6 - - ENE 1018,4 4,7 0 0,0
26.11.2020 04:00:00 9,8 9,3 - - 8 4 - - ENE 1018,3 6 0 0,0
26.11.2020 03:00:00 9,3 8,7 - - 11 6 - - E 1018,4 6 0 0,0
26.11.2020 02:00:00 9,8 9,3 - - 9 5 - - E 1018,1 8 0 0,0
26.11.2020 01:00:00 9,5 9,1 - - 8 4 - - E 1018,3 7 0 0,2
26.11.2020 00:00:00 10,4 10,1 - - 8 4 - - E 1017,9 8 - 0,0
25.11.2020 23:00:00 11,0 10,6 - - 9 5 - - ENE 1017,3 5 0 0,0
25.11.2020 22:00:00 11,0 10,6 - - 9 5 - - ENE 1017,2 3,4 0 0,6
25.11.2020 21:00:00 11,0 10,4 - - 11 6 - - NNE 1017,0 7 0 0,0
25.11.2020 20:00:00 10,8 10,1 - - 15 8 - - NNE 1016,6 10 0 0,4
25.11.2020 19:00:00 10,8 10,1 - - 16 9 - - NNE 1016,0 10 0 0,8
25.11.2020 18:00:00 10,6 9,8 - - 15 8 - - NNE 1015,5 10 0 0,0
25.11.2020 17:00:00 10,7 10,1 - - 13 7 - - NNE 1014,8 24 0 0,2
25.11.2020 16:00:00 11,0 10,5 - - 13 7 - - NNE 1014,1 10 0 0,6
25.11.2020 15:00:00 11,1 10,5 - - 11 6 - - N 1013,5 10 0 0,2
25.11.2020 14:00:00 11,5 10,9 - - 15 8 - - N 1013,0 10 0 0,0
25.11.2020 13:00:00 12,1 11,5 - - 21 11 - - S 1012,9 6 0 0,0
25.11.2020 12:00:00 12,1 11,1 - - 18 10 - - SSE 1012,4 10 0 0,0
25.11.2020 11:00:00 12,1 11,1 - - 22 12 - - S 1012,6 10 0 0,0
25.11.2020 10:00:00 12,1 11,4 - - 21 11 - - S 1012,3 10 0 0,0
25.11.2020 09:00:00 11,8 11,3 11,7 12,2 21 11 - - S 1012,0 9 0 0,0
25.11.2020 08:00:00 11,6 11,1 - - 21 11 - - S 1011,4 8 0 0,0
25.11.2020 07:00:00 11,8 11,2 - - 24 13 52 28 S 1010,9 9 0 0,2
25.11.2020 06:00:00 11,6 11,0 - - 24 13 - - S 1010,4 10 0 0,0
25.11.2020 05:00:00 11,5 10,9 - - 28 15 - - S 1010,3 10 0 0,0
25.11.2020 04:00:00 11,1 10,6 - - 26 14 - - S 1010,1 8 0 0,0
25.11.2020 03:00:00 10,4 9,8 - - 28 15 - - SSE 1010,2 7 0 0,0
25.11.2020 02:00:00 9,9 9,1 - - 24 13 - - S 1010,5 10 0 0,0
25.11.2020 01:00:00 9,8 8,9 - - 26 14 - - SSE 1010,8 10 0 0,0
25.11.2020 00:00:00 9,7 8,5 - - 28 15 - - S 1011,2 10 - 0,0
24.11.2020 23:00:00 10,0 8,5 - - 26 14 - - S 1011,6 10 0 0,0
24.11.2020 22:00:00 10,3 8,6 - - 28 15 - - S 1012,1 20 0 0,0
24.11.2020 21:00:00 10,4 8,7 - - 29 16 - - S 1012,3 10 0 0,0
24.11.2020 20:00:00 10,7 8,8 - - 34 18 - - SSE 1012,5 24 0 0,0
24.11.2020 19:00:00 10,7 8,7 - - 28 15 - - S 1012,9 10 0 0,0
24.11.2020 18:00:00 10,5 8,0 - - 26 14 - - SSE 1013,1 10 0 0,0
24.11.2020 17:00:00 10,7 7,9 - - 24 13 - - S 1013,5 10 0 0,0
24.11.2020 16:00:00 10,5 7,2 - - 28 15 - - S 1013,8 10 0 0,0
24.11.2020 15:00:00 10,1 6,6 - - 28 15 - - SSE 1014,4 45 6 0,0
24.11.2020 14:00:00 10,2 6,2 - - 29 16 - - SSE 1015,3 10 36 0,0
24.11.2020 13:00:00 11,0 6,2 - - 28 15 - - SSE 1016,3 30 60 0,0
24.11.2020 12:00:00 11,0 7,1 - - 22 12 - - SSE 1017,2 40 54 0,0
24.11.2020 11:00:00 9,8 7,0 - - 29 16 - - SSE 1018,4 10 30 0,0
24.11.2020 10:00:00 9,4 7,4 - - 35 19 - - SSE 1019,2 10 12 0,0
24.11.2020 09:00:00 9,3 7,4 12,0 12,2 31 17 - - S 1019,6 10 6 0,0
24.11.2020 08:00:00 8,6 6,9 - - 31 17 - - SSE 1019,9 10 0 0,0
24.11.2020 07:00:00 8,7 6,9 - - 29 16 - - S 1020,2 10 0 0,0
24.11.2020 06:00:00 8,8 6,6 - - 31 17 - - S 1020,7 10 0 0,0
24.11.2020 05:00:00 8,9 7,0 - - 28 15 - - S 1021,3 30 0 0,0
24.11.2020 04:00:00 8,8 7,2 - - 24 13 - - SSE 1022,0 35 0 0,0
24.11.2020 03:00:00 9,2 7,1 - - 24 13 - - SSE 1023,0 10 0 0,0
24.11.2020 02:00:00 9,9 7,3 - - 24 13 - - S 1023,7 10 0 0,0
24.11.2020 01:00:00 10,3 7,4 - - 22 12 - - S 1024,6 35 0 0,0
24.11.2020 00:00:00 10,6 7,3 - - 21 11 - - S 1025,2 10 - 0,0
23.11.2020 23:00:00 11,0 7,6 - - 21 11 - - S 1025,8 10 0 0,0
23.11.2020 22:00:00 10,4 7,4 - - 21 11 - - SSW 1026,3 10 0 0,0
23.11.2020 21:00:00 10,4 8,4 - - 18 10 - - SSW 1026,6 10 0 0,0
23.11.2020 20:00:00 10,4 8,8 - - 13 7 - - SSW 1026,8 10 0 0,0
23.11.2020 19:00:00 10,9 9,5 - - 15 8 - - SSW 1027,0 50 0 0,0
23.11.2020 18:00:00 11,1 9,9 - - 13 7 - - SW 1027,3 10 0 0,0
23.11.2020 17:00:00 11,1 10,7 - - 9 5 - - SW 1027,4 10 0 0,0
23.11.2020 16:00:00 10,6 10,3 - - 9 5 - - SSW 1027,4 35 6 0,0
23.11.2020 15:00:00 10,7 10,4 - - 15 8 - - WSW 1027,6 6 0 0,6
23.11.2020 14:00:00 11,1 10,8 - - 18 10 - - SW 1027,9 8 0 0,0
23.11.2020 13:00:00 11,3 10,8 - - 13 7 - - SW 1028,3 10 0 0,0
23.11.2020 12:00:00 11,3 10,9 - - 9 5 - - SW 1028,7 10 0 0,2
23.11.2020 11:00:00 11,0 10,5 - - 9 5 - - SE 1029,2 10 0 0,0
23.11.2020 10:00:00 10,5 10,2 - - 11 6 - - SE 1029,1 10 0 0,0
23.11.2020 09:00:00 9,4 9,2 12,2 12,4 8 4 - - SE 1028,9 10 0 0,0
23.11.2020 08:00:00 8,8 8,5 - - 5 3 - - E 1028,4 10 0 0,0
23.11.2020 07:00:00 8,3 7,6 - - 8 4 - - ENE 1028,5 0,6 0 0,0

tt = Température de l'air
td = dewpoint
tt -20cm = Température de l'air -20cm
tt -100cm = Température de l'air -100cm
ff = Vitesse du vent
fx = gusts
dd = Direction du vent
ppp = reduced air pressure
vv = visibility
sd = Ensoleillement
rr = Quantités de précipitations

stations d'obs. à proximité